Terug naar catalogus

STARLINK-37457

ActiefCommunicatieVLEO
NORAD 100294·PAYLOAD·🇺🇸 United States

Gelanceerd Aug 11, 2026 vanaf Cape Canaveral Space Force Station

Loading…

Volgende Passages (komende 24 uur)

TLE

VerouderendSource: Space-Track

Epoch: Sep 12, 2026, 20:05 UTC

1 A0294U 26183Y   26255.83721638 -.00310081  00000-0 -28436-2 0  9993
2 A0294  53.1589 294.8936 0001986   9.5963 350.5092 15.68011430  5104

Volg STARLINK-37457 in realtime met AllMySat

Download on the App Store